This is the latest recevied weather packets stored in our database for station/object KE2HEH. If no packets are shown the sender has not sent any weather packets the latest 10 day(s).
| Time | Temp. | Humidity | Pressure | Rain* | Wind** | Luminosity | Snow |
|---|---|---|---|---|---|---|---|
| 1777635737 | 10° C | 62% | 1013.7 hPa | 0 mm | - | 255 W/m² | - |
| 1777635435 | 9.44° C | 62% | 1014 hPa | 0 mm | - | 240 W/m² | - |
| 1777635132 | 9.44° C | 62% | 1014 hPa | 0 mm | - | 230 W/m² | - |
| 1777634828 | 9.44° C | 61% | 1013.8 hPa | 0 mm | - | 221 W/m² | - |
| 1777634525 | 9.44° C | 63% | 1014.1 hPa | 0 mm | - | 205 W/m² | - |
| 1777634221 | 9.44° C | 64% | 1013.8 hPa | 0 mm | - | 189 W/m² | - |
| 1777633918 | 8.89° C | 64% | 1013.8 hPa | 0 mm | - | 171 W/m² | - |
| 1777633615 | 8.89° C | 64% | 1013.7 hPa | 0 mm | - | 47 W/m² | - |
| 1777633314 | 8.89° C | 64% | 1013.7 hPa | 0 mm | - | 43 W/m² | - |
| 1777633011 | 8.89° C | 64% | 1013.8 hPa | 0 mm | - | 41 W/m² | - |
| 1777632707 | 8.89° C | 65% | 1013.7 hPa | 0 mm | - | 39 W/m² | - |
| 1777632403 | 8.89° C | 65% | 1013.6 hPa | 0 mm | - | 36 W/m² | - |
| 1777632101 | 8.89° C | 65% | 1013.6 hPa | 0 mm | - | 33 W/m² | - |
| 1777631798 | 8.89° C | 65% | 1013.5 hPa | 0 mm | - | 30 W/m² | - |
| 1777631496 | 8.89° C | 65% | 1013.5 hPa | 0 mm | - | 27 W/m² | - |
| 1777631192 | 8.89° C | 65% | 1013.3 hPa | 0 mm | - | 25 W/m² | - |
| 1777630890 | 8.89° C | 64% | 1013.3 hPa | 0 mm | - | 21 W/m² | - |
| 1777630585 | 8.89° C | 65% | 1013.3 hPa | 0 mm | - | 18 W/m² | - |
| 1777630282 | 8.89° C | 67% | 1013.1 hPa | 0 mm | - | 14 W/m² | - |
| 1777629981 | 8.89° C | 66% | 1013.3 hPa | 0 mm | - | 11 W/m² | - |
| 1777629678 | 8.89° C | 66% | 1013.1 hPa | 0 mm | - | 7 W/m² | - |
| 1777629374 | 8.89° C | 66% | 1012.9 hPa | 0 mm | - | 4 W/m² | - |
| 1777629070 | 8.89° C | 67% | 1012.9 hPa | 0 mm | - | 2 W/m² | - |
| 1777628767 | 8.89° C | 67% | 1012.8 hPa | 0 mm | - | 0 W/m² | - |
| 1777628463 | 8.89° C | 67% | 1012.8 hPa | 0 mm | - | 0 W/m² | - |
* Rain latest hour (hover to see other rain measurements)
** Current wind speed in m/s (hover to see current wind gust speed)